Location: Buckeye Ditch
(40.9104°N, 122.9517°W)
Time: 13:04:44
(UTC+00:00)

Explorer 7 - Pass Details

Date: 28 May 2025
Orbit: 445 x 571 km, 50.3° (Epoch: 22 June)

Event Time Altitude Azimuth Distance (km) Brightness Sun altitude
Rises 12:34:18 0° 305° (NW) 2,550 10.0 -2.4°
Reaches altitude 10° 12:36:28 10° 310° (NW) 1,690 9.1 -2.1°
Maximum altitude 12:40:14 55° 29° (NNE) 616 7.6 -1.5°
Drops below altitude 10° 12:44:10 10° 108° (ESE) 1,762 10.1 -0.8°
Sets 12:46:28 0° 113° (ESE) 2,672 10.9 -0.4°
